Location: Harpley
(52.8000°N, 0.6667°E)
Time: 10:37:26
(UTC+00:00)

Daily predictions for brighter satellites

Satellite Brightness Start Highest point End
(mag) Time Altitude Azimuth Time Altitude Azimuth Time Altitude Azimuth
CZ-4B R/B 3.6 20:22:35 10° S 20:28:13 70° WSW 20:33:50 10° NNW
CZ-4C R/B 2.3 20:25:10 10° WSW 20:29:36 71° NW 20:35:25 10° NE
CZ-4B R/B 4.2 20:26:20 10° SE 20:30:43 37° ENE 20:35:11 10° N
Cosmos 1992 Rocket 4.3 20:26:20 10° S 20:31:19 48° ESE 20:36:18 10° NE
ISS -3.8 20:32:43 10° WSW 20:36:01 64° S 20:39:21 10° E
Cosmos 2219 Rocket 3.3 20:31:38 10° NNW 20:36:45 34° NE 20:41:53 10° ESE
Cosmos 1437 Rocket 3.5 20:37:22 10° SSE 20:40:27 28° E 20:43:35 10° NNE
SL-08 R/B 3.3 20:38:57 10° NNE 20:43:48 79° ESE 20:48:33 10° SSW
Cosmos 1626 Rocket 3.5 20:41:40 10° N 20:46:03 77° E 20:50:26 10° SSE
DEBRIS 3.5 20:43:08 10° WSW 20:46:04 53° SSE 20:54:13 10° E
Cosmos 1743 4.3 20:44:06 10° NW 20:46:37 24° W 20:49:08 10° SSW
Cosmos 2098 Rocket 4.3 20:44:37 10° SE 20:48:26 25° E 20:51:51 10° NE
Cosmos 1452 Rocket 4.4 20:43:29 10° SW 20:48:36 55° WNW 20:53:46 10° NNE
NOSS 3-3 (A) 3.7 20:44:03 10° SSW 20:49:15 66° SE 20:55:33 10° NE
Terra 3.1 20:48:26 10° SSW 20:52:47 38° W 20:57:12 10° NNW
Cosmos 2151 2.9 20:49:56 10° N 20:54:03 69° ENE 20:58:07 10° SSE
Cosmos 2322 Rocket 2.5 20:49:49 10° NNW 20:55:27 61° NE 21:00:46 12° SE
Cosmos 1486 Rocket 4.3 20:50:28 10° NNW 20:55:42 60° ENE 21:00:35 12° SE
Helios 1A Rocket 3.8 20:52:47 10° N 20:55:46 38° WNW 20:58:42 10° SW
Cosmos 1302 Rocket 4.3 20:52:12 10° SSW 20:57:22 71° WNW 21:02:35 10° NNE
Cosmos 1607 4.1 20:52:15 10° SW 20:58:26 81° NW 21:04:47 10° NE
IRS-1C Rocket 4.3 20:53:40 10° SSE 20:58:49 61° ENE 21:04:02 10° N
Cosmos 909 Rocket 4.0 20:53:28 10° SSW 20:59:43 73° SE 21:06:18 10° NE
Cosmos 2061 Rocket 4.1 20:54:05 10° S 21:00:19 89° ESE 21:06:41 10° N
Cosmos 2082 Rocket 2.4 20:55:43 10° SW 21:01:27 78° WNW 21:07:12 10° NNE
USA 306 1.5 20:59:30 10° W 21:02:33 77° N 21:04:30 10° ENE
Cosmos 2237 Rocket 4.5 21:08:47 10° NNW 21:12:37 18° NNE 21:16:26 10° ENE
CZ-4B R/B 2.4 21:09:42 13° SSE 21:12:41 89° W 21:16:12 10° NNW
USA 186 2.9 21:11:32 10° SSW 21:14:02 32° W 21:16:34 10° NNW
Okean O Rocket 2.6 21:12:21 10° S 21:16:25 41° W 21:20:31 10° NNW
Cosmos 2228 4.3 21:16:13 10° SW 21:20:04 39° WNW 21:23:57 10° N
Cosmos 1805 2.8 21:16:50 10° N 21:20:05 65° ENE 21:22:21 18° SSE
NOSS 3-3 (C) 3.8 21:15:47 10° SW 21:21:08 84° SE 21:27:41 10° NE
Cosmos 2278 3.9 21:15:47 10° NW 21:21:31 74° WSW 21:26:23 14° SSE
Meteor 1-5 Rocket 4.3 21:18:38 10° N 21:24:23 74° ENE 21:29:21 15° SSE
COSMOS 2428 4.2 21:19:31 10° NNW 21:24:31 30° NE 21:29:28 10° E
SL-16 R/B 2.7 21:20:26 10° NW 21:25:59 56° WSW 21:30:55 13° S
Okean 1-7 Rocket 3.7 21:22:42 10° N 21:27:10 67° ENE 21:30:35 17° SSE
Cosmos 1544 Rocket 3.7 21:23:44 10° SSW 21:28:04 74° WNW 21:32:24 10° N
CZ-2C R/B 1.8 21:27:13 21° SSE 21:28:53 78° ENE 21:31:40 10° NNW
NOSS 3-4 (A) 3.9 21:25:46 10° NW 21:32:19 73° SW 21:38:39 16° SSE
NOSS 3-4 (C) 3.9 21:26:24 10° NW 21:32:59 73° SW 21:39:18 16° SSE
Cosmos-2242 4.4 21:34:03 17° ESE 21:35:54 22° E 21:39:07 10° NE
Cosmos 1891 Rocket 4.5 21:31:10 10° S 21:37:17 85° W 21:43:22 10° N
Okean-O 4.3 21:33:41 10° SSW 21:37:28 28° W 21:41:17 10° NW
Cosmos 2034 Rocket 4.5 21:32:54 15° SSE 21:37:48 46° E 21:43:48 10° NNE
Cosmos 1933 3.5 21:37:28 10° SSW 21:41:15 65° WNW 21:45:03 10° N
Ariane Rocket 3.3 21:38:06 14° S 21:42:27 66° WSW 21:47:31 10° NNW
COSMOS 2406 3.4 21:36:50 10° SW 21:42:35 77° WNW 21:48:22 10° NNE
ATLAS 2AS CENTAUR R/B 4.4 21:37:21 10° WNW 21:43:32 35° N 21:49:42 10° NE
SPOT 3 Rocket 4.2 21:41:43 11° S 21:46:29 49° W 21:51:29 10° NNW
Nadezhda 4 Rocket 4.0 21:45:09 10° NNW 21:51:18 85° W 21:56:12 17° S
Cosmos 2333 Rocket 3.1 21:48:33 10° NW 21:53:50 40° WSW 21:58:17 14° S
Cosmos 1825 Rocket 3.6 21:52:01 10° NNW 21:56:22 78° W 21:59:17 21° S
Cosmos 1470 4.4 21:54:29 10° NNE 21:56:49 18° ENE 21:58:12 14° E
Helios 1B rocket 3.2 21:55:11 20° ESE 21:56:55 31° ENE 22:00:04 10° N
Cosmos 1763 Rocket 3.8 21:53:12 17° S 21:57:03 50° ESE 22:02:08 10° NE
Cosmos 1536 3.5 21:54:03 10° N 21:57:29 35° ENE 21:59:12 23° ESE
Cosmos 1898 Rocket 4.5 21:53:22 10° NNW 21:58:13 38° NE 22:02:04 15° ESE
Okean 1 3.0 21:56:18 24° S 21:58:18 68° E 22:01:54 10° NNE
Cosmos 1707 3.1 21:59:51 26° ESE 22:00:11 27° E 22:02:39 10° NNE
Cosmos 2221 4.5 21:59:07 12° ESE 22:00:28 14° E 22:02:38 10° NE
Cosmos 1461 3.0 21:58:36 10° SW 22:02:16 63° NW 22:05:56 10° NE
Cosmos 1833 4.4 21:57:58 15° S 22:02:26 51° ESE 22:07:52 10° NE
Cosmos 1953 Rocket 3.5 21:58:06 10° N 22:02:28 74° ENE 22:04:56 25° SSE
Cosmos 44 3.6 21:57:49 10° NW 22:03:17 81° NE 22:06:56 21° SE
Cosmos 990 Rocket 4.0 21:58:24 10° NNW 22:03:36 85° WSW 22:06:54 23° SSE
Cosmos 2360 Rocket 2.7 22:02:06 10° NW 22:07:36 52° WSW 22:11:23 20° S
Cosmos 2195 Rocket 4.5 22:03:16 10° N 22:09:33 89° W 22:13:53 21° S
Cosmos 2322 4.2 22:04:01 10° NNW 22:09:37 53° NE 22:13:47 18° ESE
ISS -3.8 22:09:24 10° W 22:12:44 66° S 22:14:19 28° ESE
USA 290 2.0 22:12:10 24° SSW 22:13:55 89° WNW 22:17:05 10° NNE
Cosmos 2026 Rocket 4.0 22:07:30 10° N 22:13:56 84° E 22:18:17 22° SSE
BREEZE-M DEB (TANK) 2.5 22:11:53 10° WSW 22:13:12 24° SW 22:13:12 24° SW
Cosmos 2058 Rocket 3.4 22:14:25 27° SSE 22:16:23 47° E 22:20:33 10° NNE
CZ-4C R/B 4.1 22:14:12 10° WNW 22:18:46 32° N 22:24:34 10° NE
Helios 1A 3.0 22:17:02 10° NNE 22:20:54 54° ESE 22:22:30 31° SSE
Cosmos 2219 Rocket 2.4 22:15:29 10° NW 22:21:05 62° WSW 22:24:29 24° S
Cosmos 1975 4.0 22:20:43 10° N 22:23:58 28° ENE 22:25:24 22° ESE
Cosmos 2098 Rocket 4.0 22:21:06 10° SSW 22:25:37 44° WNW 22:29:32 10° N
Cosmos 1076 Rocket 4.0 22:21:30 10° NNW 22:25:40 53° W 22:28:03 23° SSW
KORONAS-FOTON 4.1 22:25:06 34° SE 22:25:51 40° E 22:29:04 10° NNE
USA 306 3.2 22:27:27 10° WNW 22:28:32 21° WNW 22:28:32 21° WNW
RESURS DK-1 2.7 22:26:40 10° NNW 22:30:36 56° NE 22:32:35 26° ESE
ARIANE 5 R/B 3.2 22:32:16 25° SE 22:34:31 48° ENE 22:38:50 10° N
ALOS 2 3.4 22:33:58 23° ESE 22:36:12 41° ENE 22:40:21 10° N
Cosmos 2322 Rocket 3.5 22:34:19 10° NW 22:39:09 30° WSW 22:42:34 17° SSW
Cosmos 1766 3.3 22:41:45 10° NNW 22:44:52 49° W 22:45:46 36° SW
SL-16 R/B 4.4 22:40:56 10° NNW 22:45:16 22° NNE 22:49:35 10° E
Cosmos 372 Rocket 3.9 22:40:11 10° NNW 22:45:20 84° WSW 22:47:53 30° SSE
Cosmos 1271 Rocket 2.9 22:46:13 39° SE 22:46:45 42° E 22:49:59 10° NNE
Cosmos 1842 2.9 22:47:39 48° SE 22:48:04 53° E 22:51:10 10° NNE
Cosmos 1726 Rocket 4.5 22:49:27 16° SW 22:52:19 40° WNW 22:56:10 10° N
Meteor 2-9 Rocket 4.2 22:47:39 10° N 22:53:03 71° ENE 22:55:56 29° SSE
Spot 4 3.9 22:51:57 30° SSE 22:54:16 72° ENE 22:59:04 10° NNW
Cosmos 540 Rocket 3.7 22:52:54 15° SW 22:57:13 68° WNW 23:02:23 10° NNE
Cosmos 2237 Rocket 2.9 22:52:31 10° NNW 22:58:04 50° NE 23:02:17 17° ESE
Aureole 1 Rocket 4.2 22:53:31 10° NNW 22:59:05 57° WSW 23:02:46 26° S
BREEZE-M DEB (TANK) 4.4 22:43:52 10° SW 23:00:39 58° SSE 23:04:47 10° E
Cosmos 1092 Rocket 4.4 22:55:17 10° NNW 23:01:18 56° W 23:05:07 23° SSW
Cosmos 1980 4.2 22:56:41 10° NNW 23:02:16 56° NE 23:06:13 19° SE
CZ-2C R/B 3.8 22:58:57 16° ESE 23:02:26 35° ENE 23:07:06 10° N
ARGOS Delta rocket 4.4 22:59:10 10° NNE 23:04:12 52° E 23:06:31 30° SSE
Cosmos 1937 Rocket 3.4 23:01:45 10° NNW 23:06:56 85° ENE 23:09:26 31° SSE
NOSS 8 (H) 4.4 23:05:22 10° NW 23:08:12 59° NE 23:08:57 42° E
COSMOS 2428 2.7 23:03:36 10° NW 23:09:19 75° WSW 23:12:10 30° SSE
Meteor 2-2 Rocket 4.5 23:05:51 21° SSW 23:09:41 68° WNW 23:15:30 10° N
Geosat 4.1 23:06:08 10° NNE 23:11:09 73° NW 23:15:10 16° SW
NOSS 0 Rocket 3.9 23:05:41 10° NW 23:11:54 87° WSW 23:15:26 27° SSE
Cosmos-2242 3.8 23:10:18 21° SW 23:12:38 43° WNW 23:16:36 10° N
Cosmos 2227 Rocket 4.1 23:11:04 12° ESE 23:12:47 14° E 23:15:36 10° ENE
Meteor 1-11 Rocket 3.8 23:07:10 10° N 23:12:51 69° ENE 23:15:45 29° SSE
Cosmos 468 Rocket 4.0 23:10:31 23° SSW 23:13:52 83° WNW 23:19:09 10° NNE
MetOp-A 4.2 23:18:10 28° SE 23:20:35 58° ENE 23:25:09 10° N
Cosmos 2263 Rocket 4.4 23:22:11 10° E 23:22:50 10° E 23:23:29 10° E
Cosmos 1812 Rocket 3.6 23:25:18 39° SSE 23:26:48 67° E 23:31:13 10° NNE
Cosmos 1238 Rocket 4.1 23:25:54 25° ESE 23:27:04 29° E 23:30:50 10° NNE
Helios 1B rocket 3.6 23:29:08 22° WSW 23:29:55 24° W 23:32:52 10° NW
Cosmos 1470 3.2 23:27:48 10° NNW 23:30:53 37° W 23:31:24 34° WSW
USA 234 3.6 23:25:25 10° ENE 23:31:35 42° SE 23:34:29 28° S
Cosmos 1707 4.4 23:31:20 14° W 23:32:26 17° WNW 23:34:25 10° NNW
Cosmos 1536 4.4 23:29:38 10° NW 23:32:31 22° W 23:33:43 19° WSW
SeaSat 1 3.5 23:28:37 12° ESE 23:32:49 42° NE 23:37:25 10° NNW
CZ-2C R/B 3.8 23:27:34 10° NNE 23:33:09 49° E 23:35:48 29° SSE
ACS3 Solar Sail 3.4 23:29:29 10° NE 23:33:59 22° E 23:37:20 14° SE
Meteor 1-27 Rocket 4.2 23:32:34 29° SSE 23:35:16 50° E 23:40:47 10° NNE
NOSS 8 (E) 4.1 23:32:24 10° NW 23:35:20 75° NE 23:35:47 58° ESE
ATLAS 2AS CENTAUR R/B 4.1 23:29:46 10° NW 23:36:05 38° NNE 23:42:23 10° E
Cosmos 2221 2.4 23:35:23 39° SSW 23:36:53 75° WNW 23:41:06 10° N
BlueWalker 3 4.3 23:41:18 10° E 23:41:18 10° E 23:41:20 10° E
CZ-2C R/B 4.0 23:35:39 10° N 23:40:03 62° WNW 23:42:14 29° SW
Cosmos 1898 Rocket 4.1 23:35:23 10° NW 23:40:16 43° WSW 23:42:13 30° SSW
Cosmos 2279 Rocket 4.2 23:37:49 24° SSW 23:41:42 65° WNW 23:47:57 10° N
Cosmos 2297 Rocket 2.5 23:43:29 32° SSE 23:45:45 51° ESE 23:51:12 10° NE
ISS -1.6 23:46:19 10° W 23:47:15 16° WSW 23:47:15 16° WSW
Meteor 2-20 4.4 23:46:32 31° S 23:49:39 76° E 23:55:45 10° NNE
NOSS 8 (F) 3.9 23:48:31 10° NW 23:51:26 86° SW 23:51:35 79° SSE
SAR-Lupe-2 4.0 23:53:11 39° WSW 23:53:31 40° W 23:56:42 10° NNW
Meteor 2-10 Rocket 4.2 23:48:17 10° N 23:53:42 54° ENE 23:57:08 23° SE
GP-B 3.0 23:50:05 10° N 23:54:28 81° W 23:56:01 40° SSW
